Погода в Стехнове

Россия / Псковская область     57°08′55″N   29°12′27″E
темп.,
°C
ветер,
м/с
пор.,
м/с
влажн.,
%
обл.,
%
осадки,
мм/ч
давл.,
гПа
погр.,
м
12 апреля, пн
пн1200:00+6вюв2794100 0.0 1027137
03:00+6юв2592100 0.0 102785
06:00+5ююв31287100 0.0 1027232
09:00+9ююв41270100 0.0 1027534
12:00+14ю595032 0.0 10261098
15:00+16ююв59435 0.0 10241580
18:00+15юв48490 0.0 10221386
21:00+9юв27710 0.0 1022129
13 апреля, вт
вт1300:00+7юв3107697 0.0 1022206
03:00+5юв268852 0.0 1021132
06:00+4юв22947 0.0 102138
09:00+8ююв2778100 0.0 1021289
12:00+12ююз3560100 0.0 1021665
15:00+15зюз345028 0.0 10201354
18:00+9сз567999 0.0 1021444
21:00+6ссз378316 0.0 1022354
14 апреля, ср
ср1400:00+4ссз398316 0.0 1022372
03:00+4с3979100 0.0 1021399
06:00+3с31075100 0.6 1021499
09:00+2с3880100 2.0 1021585
12:00+2с3895100 3.0 1022410
15:00+3с3897100 5.0 1022395
18:00+3ссв3997100 0.9 1022491
21:00+3св31097100 0.9 1022540
15 апреля, чт
чт1500:00+3ссв31091100 0.0 1022634
03:00+3ссв41190100 0.0 1022620
06:00+3ссв41285100 0.0 1021579
09:00+3ссв41281100 0.0 1022649
12:00+6св51169100 0.0 1022941
15:00+8св5961100 0.0 10221266
18:00+7св51063100 0.0 10221229
21:00+5ссв51170100 0.0 1023813
16 апреля, пт
пт1600:00+3св51376100 0.0 1024711
03:00+2св5138096 0.0 1025614
06:00+1св515845 0.0 1026583
09:00+4св614735 0.0 1027809
12:00+8св611490 0.0 10291163
15:00+10св69420 0.0 10291487
18:00+9св59505 0.0 10301562
21:00+5св310663 0.0 1032324